Weather in Gandía

Spain     38°57′42″N   0°11′10″E
temp.,
°C
wind,
m/s
gust,
m/s
humid.,
%
clouds,
%
prec.,
mm/h
press.,
hPa
HPBL,
m
3 august, tue
tue323:00+22e22744 0.0 101770
02:00+20sse11810 0.0 101738
05:00+19sw22850 0.0 101626
08:00+20wsw11800 0.0 101749
11:00+27ene114729 0.0 1017900
14:00+29e4344100 0.0 10161140
17:00+29e444368 0.0 1013821
20:00+28ese454612 0.0 1012436
4 august, wed
wed423:00+24sw33595 0.0 101347
02:00+22w2366100 0.0 101353
05:00+21sw116539 0.0 101214
08:00+23sw2245100 0.0 101244
11:00+31nw2427100 0.0 1012858
14:00+29ene54460 0.0 1012684
17:00+29ene43480 0.0 1012592
20:00+26e23569 0.0 1014410
5 august, thu
thu523:00+23sw116680 0.0 101613
02:00+22wnw11681 0.0 101615
05:00+21wsw11810 0.0 101518
08:00+21wsw22796 0.0 101677
11:00+28nnw12541 0.0 1015905
14:00+32ene54430 0.0 10131166
17:00+31e55430 0.0 1011619
20:00+32se12391 0.0 1009340
6 august, fri
fri623:00+24wnw34690 0.0 1011132
02:00+22w22790 0.0 101139
05:00+22ese11770 0.0 100915
08:00+22ese12800 0.0 101068
11:00+28ne31594 0.0 1010658
14:00+30ene42531 0.0 1009823
17:00+29e44595 0.0 1007564
20:00+28nne33605 0.0 1005336
7 august, sat
sat723:00+23wnw23821 0.0 100771
02:00+22w22900 0.0 100746
05:00+21wsw22930 0.0 100624
08:00+23wsw23760 0.0 100660
11:00+32w58175 0.0 10071209
14:00+36nw68112 0.0 10062137
17:00+38n481314 0.0 10052979
20:00+29ene344854 0.0 1007247